Location: Middlebury
(44.0133°N, 73.1813°W)
Time: 03:15:11
(UTC-05:00)

Envisat - Visible Passes

Search period start: 29 January 2022 00:00
Search period end: 08 February 2022 00:00
Orbit: 764 x 766 km, 98.2° (Epoch: 28 January)

Date Brightness Start Highest point End Pass type
(mag) Time Alt. Az. Time Alt. Az. Time Alt. Az.
29 Jan 4.4 04:10:35 10° NNE 04:15:17 36° E 04:19:56 10° SSE visible
29 Jan 3.8 05:49:49 10° N 05:54:10 29° WNW 05:58:30 10° SW visible
30 Jan 5.5 03:34:48 10° NE 03:38:05 17° E 03:41:22 10° SE visible
30 Jan 2.9 05:12:29 10° N 05:17:31 61° WNW 05:22:29 10° SSW visible
31 Jan 3.3 04:35:36 10° NNE 04:40:39 63° E 04:45:41 10° S visible
31 Jan 4.3 06:15:46 10° NNW 06:19:11 18° WNW 06:22:34 10° WSW visible
31 Jan 6.5 17:35:14 10° W 17:36:12 10° W 17:37:11 10° WNW visible
01 Feb 4.8 03:59:12 10° NE 04:03:36 29° E 04:07:59 10° SSE visible
01 Feb 3.5 05:38:01 10° N 05:42:39 36° WNW 05:47:16 10° SW visible
02 Feb 5.8 03:23:55 10° ENE 03:26:20 13° E 03:28:46 10° ESE visible
02 Feb 2.8 05:00:51 10° N 05:05:56 77° WNW 05:11:00 10° SSW visible
03 Feb 3.8 04:24:05 10° NNE 04:29:02 49° E 04:33:56 10° S visible
03 Feb 4.1 06:03:49 10° NNW 06:07:42 23° WNW 06:11:35 10° WSW visible
04 Feb 5.1 03:47:54 10° NE 03:51:55 23° E 03:55:54 10° SE visible
04 Feb 3.2 05:26:17 10° N 05:31:08 45° WNW 05:35:56 10° SW visible
05 Feb 6.0 03:14:08 10° E 03:14:35 10° E 03:15:02 10° E visible
05 Feb 2.9 04:49:14 10° NNE 04:54:21 85° ESE 04:59:26 10° SSW visible
05 Feb 4.6 06:30:06 10° NNW 06:32:39 14° WNW 06:35:12 10° W visible
06 Feb 4.3 04:12:37 10° NNE 04:17:22 39° E 04:22:06 10° SSE visible
06 Feb 3.8 05:51:57 10° N 05:56:13 28° WNW 06:00:28 10° WSW visible
07 Feb 5.5 03:36:43 10° NE 03:40:12 18° E 03:43:39 10° SE visible
07 Feb 3.0 05:14:35 10° N 05:19:35 57° WNW 05:24:32 10° SSW visible
